OBJECT A, 61238

Orbit data source: Space-Track

You're viewing an Uncataloged Satellite

Recently launched and/or uncataloged satellites may have evolving metadata. Metadata may include but not limited to: Owner, Maufacturer, Bus, Motor, and Mission.

OBJECT A, 61238 is a Chinese satellite in SSO that was launched on Tue, 24 Sep 2024 UTC via a LIJIAN-1 launch vehicle from the Jiuquan Satellite Launch Center, China (JSC). Unknown objects in Earth's orbit typically refer to objects detected orbiting the Earth but have not yet been identified or cataloged. These objects could be anything from previously untracked satellites, spent rocket stages, debris from satellite collisions, or even natural meteoroids temporarily captured by Earth's gravity.

Loading next visibility...
Identifier
61238, 2024-174A
Orbit
SSO
Country
Flag of CNCN / PRC
Related business
None
Manufacturer
Unknown
Mission
Operational Commercial Radar Imaging
Bus & Motor
Unknown
Mass
Unknown
Launch date (UTC)
2024-09-24 (1 year ago)
Launch vehicle
LIJIAN-1
Launch site
Jiuquan Satellite Launch Center, China (JSC)
Object type
Unknown
Shape & HBR
Box + 3 Pan, 3.0 m
Radar Cross Section
3.533 m², Large (>1 m²)

Expand to show TLE details & history
Last TLE update: 6 days ago

TLE from 6 days ago
0 OBJECT A
1 61238U 24174A   25287.71679093 -.00000049  00000-0  84956-6 0  9996
2 61238  97.4524 293.8456 0001785  96.5510 263.5928 15.19141324 58411
Epoch: 2025-10-14T17:12Z
TLE epoch observation values (Epoch: 2025-10-14T17:12:10.736Z)
Latitude
0.00001°
Longitude
12.29965°
Altitude
511.66 km
Speed
7.608 km/s
True Right ascension
19h 35m 22s
True Declination
0° 00' 00"
Sunlit
Object was in daylight at epoch
Visualization orbit readout
Latitude
Unknown
Longitude
Unknown
Altitude
Unknown
Speed
Unknown
Apparent Right ascension
Unknown
Apparent Declination
Unknown
Sunlit
N/A
Visualization observer readout
Local Sidereal Time
11:01:47
Azimuth
Unknown
Elevation
Unknown
Doppler factor
Unknown
Orbital elements
Apogee altitude
506.632 km
Perigee altitude
504.175 km
Semi-major axis
6,883.54 km
Eccentricity
0.00018
Inclination
97.4524°
RAAN
293.8456°
Arg. of periapsis
96.551°
True anomaly
263.57247°
Mean anomaly
263.5928°
Eccentric anomaly
263.58264°
Mean motion
3.80037 °/min
Orbital period
94.73 mins
BSTAR
8.4956e-7
Loading maneuver chart data...
Computing Atmospheric mass density...
Loading historical data...
Loading historical data...
Loading historical data...
Loading historical data...
Loading historical data...
Loading historical data...
Loading historical data...

Documentation

Showing up to 5 results
|